{"data":{"norad_id":54175,"intl_designator":"2022-141U","name":"STARLINK-5256","alt_names":[],"object_type":"PAYLOAD","status":"ACTIVE","operator":null,"country":"US","launch_date":"2022-10-28","launch_site_code":"AFWTR","launch_vehicle":null,"mission":null,"orbit_class":"UNKNOWN","rcs_meters":null,"size_class":null,"mass_kg":null,"dimensions":null,"purposes":["comms"],"wikipedia_slug":null,"has_3d_model":false,"image_url":null,"decayed_at":null,"tle_current":{"epoch":"2026-09-20T10:49:13.141056Z","epoch_age_seconds":94147,"freshness":"FRESH","line1":"1 54175U 22141U   26263.45084654 -.00005952  00000+0 -16511-3 0  9996","line2":"2 54175  53.1607 194.1490 0001405 126.6978 233.4154 15.34408121215473","mean_motion":15.34408121,"eccentricity":0.0001405,"inclination_deg":53.1607,"raan_deg":194.149,"arg_perigee_deg":126.6978,"mean_anomaly_deg":233.4154,"bstar":-0.00016511,"rev_number":21547,"period_min":93.847261383205,"perigee_km":461.71796832767,"apogee_km":463.64023765261,"semimajor_km":6840.8161029901,"source":"CELESTRAK","updated_at":"2026-09-21T09:00:33.091278Z"}}}